Ottumwa, IA

7:20 PM CDT on October 15, 2019 (GMT -0500)
Ottumwa Industrial

Weather History for KOTM - August, 2019

Change the Weather History Date:

Sunday, August 25, 2019

  Actual Average Record
Temperature  
Mean Temperature 66 °F 72 °F  
Max Temperature 70 °F 83 °F 106 °F (1936)
Min Temperature 61 °F 61 °F 42 °F (1934)
Degree Days  
Heating Degree Days 0 0  
Month to date heating degree days 0 0  
Since 1 June heating degree days 4 23  
Since 1 July heating degree days 0 2  
Cooling Degree Days 1 7  
Month to date cooling degree days 207 215  
Year to date cooling degree days 854 794  
Since 1 June cooling degree days 791 730  
Growing Degree Days 16 (Base 50)    
Moisture  
Dew Point 60 °F    
Average Humidity 83    
Maximum Humidity 93    
Minimum Humidity 73    
Precipitation  
Precipitation 0.25 in 0.15 in 3.21 in (1987)
Month to date precipitation 3.13 3.74  
Year to date precipitation 29.65 25.83  
Sea Level Pressure  
Sea Level Pressure 29.95 in    
Wind  
Wind Speed 10 mph (East)    
Max Wind Speed 16 mph    
Max Gust Speed 22 mph    
Visibility 9 miles    
Events Rain    
T = Trace of Precipitation, MM = Missing Value Source: NWS Daily Summary

Daily Weather History Graph

Daily Weather History Graph

Search for Another Location

Airport or City:

Astronomy

Aug. 25, 2019 Rise Set
Actual Time 6:29 AM CDT 7:53 PM CDT
Civil Twilight 6:00 AM CDT 8:22 PM CDT
Nautical Twilight 5:25 AM CDT 8:57 PM CDT
Astronomical Twilight 4:49 AM CDT 9:33 PM CDT
Moon 1:02 AM CDT (8/25) 4:17 PM CDT (8/25)
Length of Visible Light 14h 22m
Length of Day
13h 24m
Waning Crescent, 29% of the Moon is Illuminated
Aug 25
Waning Crescent
Aug 30
New
Sep 5
First Quarter
Sep 13
Full
Sep 21
Last Quarter

Hourly Weather History & Observations

Time (CDT) Temp. Dew Point Humidity Pressure Visibility Wind Dir Wind Speed Gust Speed Precip Events Conditions
12:53 AM 63.0 °F 57.0 °F 81% 30.09 in 10.0 mi East 4.6 mph - N/A   Mostly Cloudy
1:53 AM 63.0 °F 57.0 °F 81% 30.07 in 10.0 mi ENE 4.6 mph - N/A   Overcast
2:53 AM 63.0 °F 57.9 °F 84% 30.05 in 10.0 mi East 6.9 mph - 0.00 in Rain Light Rain
3:53 AM 62.1 °F 57.0 °F 84% 30.05 in 10.0 mi East 6.9 mph - 0.00 in   Overcast
4:53 AM 62.1 °F 57.0 °F 84% 30.04 in 10.0 mi East 6.9 mph - N/A   Overcast
5:53 AM 62.1 °F 55.9 °F 80% 30.01 in 10.0 mi East 9.2 mph - 0.00 in   Overcast
6:53 AM 61.0 °F 55.9 °F 83% 30.01 in 10.0 mi East 9.2 mph - N/A   Overcast
7:53 AM 62.1 °F 55.9 °F 80% 30.01 in 10.0 mi ESE 10.4 mph - N/A   Overcast
8:53 AM 64.0 °F 57.0 °F 78% 30.00 in 10.0 mi ESE 10.4 mph - 0.00 in Rain Light Rain
9:53 AM 66.0 °F 57.9 °F 75% 30.00 in 10.0 mi East 12.7 mph - 0.00 in   Overcast
10:53 AM 66.9 °F 57.9 °F 73% 30.01 in 10.0 mi ESE 11.5 mph - N/A   Overcast
11:53 AM 68.0 °F 59.0 °F 73% 29.99 in 10.0 mi SE 9.2 mph - N/A   Overcast
12:53 PM 69.1 °F 60.1 °F 73% 29.98 in 10.0 mi ESE 10.4 mph - N/A   Overcast
1:53 PM 69.1 °F 60.1 °F 73% 29.96 in 10.0 mi East 11.5 mph - 0.00 in   Overcast
2:53 PM 70.0 °F 61.0 °F 73% 29.94 in 10.0 mi ESE 12.7 mph - N/A   Overcast
3:53 PM 70.0 °F 61.0 °F 73% 29.92 in 10.0 mi East 9.2 mph - N/A   Overcast
4:53 PM 70.0 °F 60.1 °F 71% 29.90 in 10.0 mi East 11.5 mph - N/A   Overcast
5:53 PM 69.1 °F 61.0 °F 75% 29.89 in 10.0 mi East 11.5 mph - 0.00 in   Overcast
6:38 PM 66.9 °F 63.0 °F 87% 29.89 in 2.5 mi East 10.4 mph - 0.05 in Rain Light Rain
6:46 PM 66.9 °F 63.0 °F 87% 29.88 in 5.0 mi East 11.5 mph - 0.06 in Rain Light Rain
6:53 PM 66.9 °F 63.0 °F 87% 29.87 in 8.0 mi East 11.5 mph - 0.06 in Rain Light Rain
7:34 PM 66.0 °F 63.0 °F 90% 29.89 in 2.5 mi East 9.2 mph - 0.09 in Rain Heavy Rain
7:44 PM 66.0 °F 63.0 °F 90% 29.89 in 5.0 mi East 10.4 mph - 0.11 in Rain Rain
7:53 PM 66.0 °F 62.1 °F 87% 29.87 in 7.0 mi East 13.8 mph - 0.11 in Rain Light Rain
8:53 PM 64.0 °F 62.1 °F 93% 29.87 in 8.0 mi East 11.5 mph - 0.05 in Rain Light Rain
9:53 PM 64.9 °F 62.1 °F 90% 29.88 in 10.0 mi East 10.4 mph - 0.02 in Rain Light Rain
10:53 PM 64.9 °F 61.0 °F 87% 29.86 in 10.0 mi East 15.0 mph - 0.00 in   Overcast
11:53 PM 64.0 °F 61.0 °F 90% 29.84 in 10.0 mi East 10.4 mph - 0.01 in   Overcast